Home > Weather > Osnabrück > Past weeks

Flag for Germany Past Weather in Osnabrück, Lower Saxony, Germany — Yesterday and Last 2 Weeks

Now
66 °F

Passing clouds.


Feels Like: 66 °F
Forecast: 63 / 83 °F
Wind: 3 mph from Southeast

Location: Muenster / Osnabrueck

Current Time: Aug 26, 2016 at 5:33:02 AM

Latest Report: Aug 26, 2016 at 4:50 AM


Visibility: N/A

Pressure: 29.95 "Hg

Humidity: 68%

Dew Point: 55 °F

Location of OsnabrückLocation

Past Weather in Osnabrück — Graph

°F

Osnabrück Temperature Yesterday

Maximum temperature yesterday: 90 °F (at 4:20 PM)
Minimum temperature yesterday: 66 °F (at 4:50 AM)
Average temperature yesterday: 77 °F

High & Low Weather Summary for the Past Weeks

 TemperatureHumidityPressure
High90 °F (Aug 25, 4:20 PM)100% (Aug 11, 5:50 AM)30.33 "Hg (Aug 11, 5:50 AM)
Low43 °F (Aug 11, 4:20 AM)29% (Aug 25, 5:20 PM)29.77 "Hg (Aug 19, 5:20 PM)
Average64 °F75%30.08 "Hg
* Reported Aug 11 4:20 AM — Aug 26 4:20 AM, Osnabrück, Weather by CustomWeather, © 2016

Note: Actual official high and low records may vary slightly from our data, if they occured in-between our weather recording intervals... More about our weather records

Advertising

Osnabrück Weather History for the Previous 24 Hours

Scroll right to see more
 ConditionsComfort  
Time TempWeatherWind HumidityBarometerVisibility
4:20 AM
Fri, Aug 26
66 °FPassing clouds.3 mph68%29.95 "HgN/A
3:50 AM68 °FPassing clouds.3 mph64%29.95 "HgN/A
3:20 AM68 °FClear.2 mph64%29.95 "Hg10 mi
2:50 AM68 °FClear.3 mph64%29.95 "Hg10 mi
2:20 AM66 °FClear.1 mph73%29.95 "Hg10 mi
1:50 AM64 °FClear.1 mph83%29.95 "Hg10 mi
1:20 AM64 °FClear.2 mph83%29.95 "Hg10 mi
12:50 AM66 °FClear.1 mph78%29.95 "Hg10 mi
12:20 AM66 °FClear.No wind78%29.95 "Hg10 mi
11:50 PM
Thu, Aug 25
70 °FClear.3 mph69%29.95 "Hg10 mi
11:20 PM70 °FClear.6 mph73%29.95 "Hg10 mi
10:50 PM68 °FClear.1 mph83%29.95 "Hg10 mi
10:20 PM68 °FClear.1 mph78%29.95 "Hg10 mi
9:50 PM70 °FClear.2 mph78%29.95 "Hg10 mi
9:20 PM72 °FSunny.No wind69%29.95 "Hg10 mi
8:50 PM75 °FSunny.No wind65%29.95 "Hg10 mi
8:20 PM81 °FSunny.2 mph48%29.95 "Hg10 mi
7:50 PM84 °FSunny.2 mph40%29.95 "Hg10 mi
7:20 PM88 °FSunny.2 mph35%29.95 "Hg10 mi
6:50 PM90 °FSunny.2 mph36%29.95 "Hg10 mi
6:20 PM90 °FSunny.3 mph33%29.95 "Hg10 mi
5:50 PM90 °FSunny.3 mph31%29.95 "Hg10 mi
5:20 PM90 °FPassing clouds.6 mph29%29.98 "HgN/A
4:50 PM90 °FPassing clouds.7 mph33%29.98 "HgN/A
4:20 PM90 °FPassing clouds.7 mph33%29.98 "HgN/A
3:50 PM88 °FPassing clouds.9 mph35%29.98 "HgN/A
3:20 PM88 °FPassing clouds.8 mph40%30.01 "HgN/A
2:50 PM88 °FPassing clouds.7 mph43%30.01 "HgN/A
2:20 PM86 °FPassing clouds.6 mph40%30.01 "HgN/A
1:50 PM86 °FPassing clouds.6 mph40%30.04 "HgN/A
1:20 PM84 °FPassing clouds.7 mph43%30.04 "HgN/A
12:50 PM84 °FPassing clouds.9 mph45%30.04 "HgN/A
12:20 PM82 °FPassing clouds.7 mph48%30.04 "HgN/A
11:50 AM82 °FPassing clouds.9 mph51%30.04 "HgN/A
11:20 AM81 °FSunny.7 mph51%30.07 "Hg10 mi
10:50 AM81 °FPassing clouds.7 mph58%30.07 "HgN/A
10:20 AM79 °FPassing clouds.6 mph54%30.07 "HgN/A
9:50 AM75 °FPassing clouds.5 mph61%30.07 "HgN/A
9:20 AM73 °FPassing clouds.5 mph65%30.09 "HgN/A
8:50 AM72 °FPassing clouds.3 mph69%30.09 "HgN/A
8:20 AM70 °FPassing clouds.5 mph69%30.07 "HgN/A
7:50 AM68 °FPassing clouds.6 mph73%30.07 "HgN/A
7:20 AM66 °FPassing clouds.6 mph78%30.09 "HgN/A
6:50 AM66 °FPassing clouds.6 mph78%30.09 "HgN/A
6:20 AM68 °FPassing clouds.7 mph73%30.09 "HgN/A
5:50 AM68 °FPassing clouds.6 mph73%30.07 "HgN/A
5:20 AM68 °FClear.3 mph73%30.09 "Hg10 mi
Weather by CustomWeather, © 2016

See weather overviewHow to use our weather pages